Regional Weather Roundup
Issued by NWS

Home | Current Version | Previous Version | Graphics & Text | Print | Product List | Glossary On
Versions: 1 2 3 4 5 6 7 8 9 10 11 12 13 14 15 16 17 18 19 20 21 22 23 24 25 26 27 28 29 30 31 32 33 34 35 36 37 38 39 40 41 42 43 44 45 46 47 48 49 50
000
ASUS43 KLMK 020102
RWRKY
KENTUCKY REGIONAL WEATHER ROUNDUP
NATIONAL WEATHER SERVICE LOUISVILLE KY
900 PM EDT WED JUL 01 2015

NOTE "FAIR" INDICATES FEW OR NO CLOUDS BELOW 12,000 FEET
WITH NO SIGNIFICANT WEATHER AND/OR OBSTRUCTIONS TO VISIBILITY.

KYZ001>023-026-027-061>063-070>075-020200-
WESTERN AND SOUTH CENTRAL KENTUCKY

CITY           SKY/WX    TMP DP  RH WIND       PRES   REMARKS
PADUCAH        PTCLDY    78  69  73 S5        29.91R
HENDERSON      PTCLDY    77  66  69 SW7       29.89S
OWENSBORO      PTCLDY    77  72  84 SW6       29.90S
HOPKINSVILLE   PTCLDY    74  69  83 S8        29.95R
BOWLING GREEN  CLOUDY    77  68  73 SW13      29.94R
GLASGOW        NOT AVBL
$$

KYZ024-025-028>034-038-045-046-053-020200-
NORTH CENTRAL KENTUCKY

CITY           SKY/WX    TMP DP  RH WIND       PRES   REMARKS
LOUISVILLE/SDF MOCLDY    76  67  73 SW8       29.90R
LOUISVILLE/LOU CLOUDY    76  68  76 S3        29.91S
FORT KNOX      MOCLDY    73  69  89 S3        29.91S
$$

KYZ035>037-039>044-047>052-055>060-089>105-020200-
NORTHEAST KENTUCKY

CITY           SKY/WX    TMP DP  RH WIND       PRES   REMARKS
LEXINGTON      CLOUDY    72  69  90 SE5       29.93S FOG
COVINGTON      CLOUDY    73  64  73 CALM      29.92R
FRANKFORT      MOCLDY    72  68  87 CALM      29.91S FOG
$$

KYZ054-064>069-076>088-106>120-020200-
SOUTHEAST KENTUCKY

CITY           SKY/WX    TMP DP  RH WIND       PRES   REMARKS
JACKSON        MOCLDY    70  67  90 CALM      29.96R
LONDON         LGT RAIN  72  67  84 S3        29.96R
SOMERSET       NOT AVBL
MIDDLESBORO    CLOUDY    72  68  88 S3        29.97S
MONTICELLO     MOCLDY    72  66  81 SW8       29.99R
$$



USA.gov is the U.S. government's official web portal to all federal, state and local government web resources and services.